[[{"header":{"parameterUnit":"m.s-1","parameterCategory":1,"la1":30.2991,"la2":30.254,"lo1":-89.0895,"lo2":-89.0444,"dy":0.0017,"dx":0.0017,"nx":28,"ny":28,"refTime":"2024-07-25T09:00:00:Z","depth":0,"parameterNumber":2,"parameterNumberName":"U-component_of_WINDS"},"data":[0,0,0,0,0,0,0,0,0,0,0,0,0,0,0,0,0,0,0,0,0,0,0,0,0,0,0,0,0,0,0,0,0,0,0,0,0,0,0,0,0,0,0,0,0,0,0,0,0,0,0,0,0,0,0,0,0,0,-0.0608,-0.0607,0,-0.0532,-0.0532,-0.0531,-0.048,-0.048,-0.0479,-0.0479,-0.0401,-0.04,-0.0398,0,0,0,0,0,0,0,0,0,0,0,0,0,-0.0708,-0.0707,-0.0608,-0.0607,-0.0606,-0.0533,-0.0532,-0.0531,-0.048,-0.048,-0.0479,-0.0479,-0.0402,-0.04,-0.0398,0,0,0,0,0,0,0,0,0,0,0,0,0,-0.0652,-0.0706,-0.0608,-0.0572,-0.0568,-0.0533,-0.0532,-0.053,-0.048,-0.048,-0.0479,-0.0479,-0.0403,-0.04,-0.0398,-0.0392,0,0,-0.039,-0.0389,0,0,0,0,0,0,0,0,-0.0655,-0.0648,-0.0578,-0.0574,-0.057,-0.0515,-0.0539,-0.0484,-0.048,-0.0514,-0.0479,-0.0478,-0.044,-0.0434,-0.0421,-0.0388,-0.0385,-0.0389,-0.0388,-0.0387,-0.0386,0,0,0,0,0,0,0,-0.0659,-0.0651,-0.0578,-0.0577,-0.0572,-0.056,-0.0551,-0.0528,-0.048,-0.0511,-0.0507,-0.0499,-0.0437,-0.0424,-0.0419,-0.0384,-0.0389,-0.0387,-0.0386,-0.0385,-0.0346,-0.0346,0,0,0,0,0,0,-0.0669,-0.0655,-0.058,-0.0576,-0.0612,-0.0558,-0.0549,-0.0533,-0.0481,-0.0472,-0.0499,-0.0497,-0.0428,-0.0422,-0.0416,-0.0407,-0.0387,-0.0384,-0.0383,-0.0345,-0.0346,-0.0346,0,0,0,0,0,0,-0.0671,-0.0663,-0.0583,-0.0614,-0.0603,-0.0557,-0.054,-0.0532,-0.0518,-0.0472,-0.0463,-0.0494,-0.0428,-0.042,-0.0399,-0.0404,-0.0383,-0.0381,-0.0344,-0.0345,-0.0346,-0.039,0,0,0,0,0,0,-0.0674,-0.0664,-0.0661,-0.0615,-0.0602,-0.0567,-0.054,-0.0531,-0.0514,-0.051,-0.0465,-0.0457,-0.0427,-0.0403,-0.0396,-0.04,-0.0379,-0.0344,-0.0345,-0.0346,-0.0388,-0.0392,-0.0396,0,0,0,0,0,-0.0678,-0.0676,-0.0661,-0.0652,-0.0597,-0.0568,-0.056,-0.0526,-0.0515,-0.0512,-0.0482,-0.0458,-0.0405,-0.0401,-0.0393,-0.0396,-0.0343,-0.0344,-0.0346,-0.0386,-0.0391,-0.0396,0,0,0,0,0,0,-0.0723,-0.0669,-0.0652,-0.0634,-0.0606,-0.0559,-0.0554,-0.0532,-0.0507,-0.0504,-0.0462,-0.0453,-0.0437,-0.0414,-0.0412,-0.039,-0.0371,-0.0371,-0.0405,-0.0409,-0.0413,-0.0419,-0.0377,0,0,0,0,0,-0.0731,-0.0711,-0.0665,-0.0654,-0.0641,-0.0601,-0.0586,-0.0563,-0.0532,-0.0519,-0.0488,-0.0459,-0.0436,-0.0421,-0.0397,-0.0384,-0.0375,-0.0383,-0.0387,-0.039,-0.0391,-0.0384,-0.0388,-0.035,-0.035,-0.035,0,0,-0.0747,-0.0715,-0.0705,-0.0662,-0.0638,-0.0619,-0.0591,-0.0572,-0.0558,-0.0516,-0.0495,-0.0472,-0.0437,-0.0421,-0.0412,-0.0401,-0.0399,-0.0392,-0.0395,-0.0393,-0.0386,-0.0389,-0.0393,-0.0351,-0.0351,-0.0351,0,0,-0.0766,-0.074,-0.0729,-0.0705,-0.0669,-0.0642,-0.064,-0.0596,-0.058,-0.0558,-0.0527,-0.051,-0.047,-0.0447,-0.043,-0.0444,-0.0422,-0.0437,-0.0458,-0.0453,-0.0456,-0.0458,-0.0464,-0.0467,-0.0438,-0.0438,-0.0438,0,-0.0791,-0.0761,-0.0726,-0.0709,-0.0692,-0.0655,-0.0644,-0.0623,-0.058,-0.0569,-0.0558,-0.051,-0.0483,-0.0462,-0.0466,-0.0453,-0.0449,-0.0442,-0.0458,-0.046,-0.0462,-0.0468,-0.047,-0.044,-0.044,-0.044,-0.044,0,-0.0794,-0.0774,-0.077,-0.0731,-0.0713,-0.07,-0.0663,-0.0649,-0.0628,-0.0602,-0.0582,-0.0549,-0.0519,-0.0512,-0.049,-0.0489,-0.0484,-0.0466,-0.0447,-0.0468,-0.0473,-0.0475,-0.0443,-0.0443,-0.0442,-0.0441,0,0,-0.0838,-0.0782,-0.0781,-0.0764,-0.0722,-0.0706,-0.0691,-0.0662,-0.0652,-0.0625,-0.0612,-0.0581,-0.0565,-0.0546,-0.0521,-0.0516,-0.0531,-0.0499,-0.0498,-0.0507,-0.0529,-0.0544,-0.0546,-0.0516,-0.0516,-0.0517,-0.0533,0,-0.0853,-0.0825,-0.0793,-0.0776,-0.0759,-0.0724,-0.0712,-0.0685,-0.0662,-0.0644,-0.0618,-0.0597,-0.0577,-0.0565,-0.0559,-0.0531,-0.0535,-0.0529,-0.0505,-0.0504,-0.0515,-0.0548,-0.0563,-0.058,-0.0534,-0.0534,-0.0535,0,-0.0865,-0.0841,-0.0823,-0.0784,-0.0776,-0.0765,-0.0737,-0.072,-0.069,-0.0673,-0.0653,-0.0628,-0.0611,-0.0595,-0.0572,-0.0569,-0.0557,-0.0543,-0.0542,-0.0539,-0.0521,-0.0547,-0.0584,-0.0587,-0.0537,-0.0537,-0.0536,0,-0.0901,-0.0864,-0.0848,-0.0835,-0.0789,-0.0783,-0.0764,-0.0733,-0.0718,-0.0694,-0.0684,-0.0658,-0.0644,-0.0625,-0.0593,-0.0583,-0.0575,-0.0555,-0.0561,-0.0562,-0.0561,-0.0562,-0.0598,-0.0553,-0.0553,-0.0553,-0.0552,0,-0.0921,-0.0911,-0.0864,-0.0855,-0.0844,-0.0808,-0.0799,-0.0776,-0.075,-0.0736,-0.0704,-0.0692,-0.0651,-0.0634,-0.0609,-0.0595,-0.0589,-0.0576,-0.0569,-0.0579,-0.0581,-0.0571,-0.0569,-0.0553,-0.0553,-0.0553,-0.0553,0,-0.0959,-0.0927,-0.0909,-0.0868,-0.0858,-0.0851,-0.0817,-0.0807,-0.0782,-0.0766,-0.076,-0.0721,-0.07,-0.0667,-0.0635,-0.0619,-0.061,-0.0599,-0.062,-0.0617,-0.0626,-0.0626,-0.0657,-0.066,-0.0613,-0.0613,-0.0613,0,-0.0974,-0.0966,-0.0925,-0.0914,-0.0897,-0.0879,-0.0864,-0.0829,-0.0816,-0.0782,-0.0776,-0.0753,-0.0732,-0.0701,-0.067,-0.0646,-0.0635,-0.0648,-0.0631,-0.0642,-0.0637,-0.0638,-0.0638,-0.0652,-0.0652,-0.0653,-0.0653,0,-0.1004,-0.0989,-0.097,-0.0945,-0.0929,-0.0908,-0.0885,-0.0878,-0.0838,-0.0824,-0.0803,-0.0787,-0.0756,-0.0734,-0.0706,-0.0687,-0.0664,-0.0659,-0.0659,-0.0669,-0.0683,-0.0677,-0.0632,-0.0658,-0.0658,-0.0657,-0.0657,-0.0657,-0.1032,-0.1024,-0.0995,-0.0975,-0.0954,-0.0934,-0.0924,-0.0899,-0.088,-0.0853,-0.0834,-0.0814,-0.0786,-0.0746,-0.0728,-0.0713,-0.0703,-0.0703,-0.0703,-0.0704,-0.0708,-0.0685,-0.0708,-0.0707,-0.0707,-0.0707,-0.0707,0,-0.1062,-0.1042,-0.1023,-0.0994,-0.0978,-0.0959,-0.0933,-0.0921,-0.0905,-0.088,-0.0861,-0.0838,-0.0817,-0.0785,-0.0762,-0.0755,-0.0744,-0.0751,-0.0751,-0.0747,-0.0718,-0.0721,-0.076,-0.076,-0.076,-0.076,-0.076,-0.076,-0.1075,-0.1062,-0.1044,-0.1021,-0.1001,-0.0982,-0.0969,-0.0951,-0.0932,-0.0907,-0.089,-0.087,-0.0843,-0.0818,-0.0798,-0.0789,-0.0782,-0.0792,-0.078,-0.0754,-0.0749,-0.0744,-0.0747,-0.0791,-0.0791,-0.0811,-0.0811,-0.0811]},{"header":{"parameterUnit":"m.s-1","parameterCategory":1,"la1":30.2991,"la2":30.254,"lo1":-89.0895,"lo2":-89.0444,"dy":0.0017,"dx":0.0017,"nx":28,"ny":28,"refTime":"2024-07-25T09:00:00:Z","depth":0,"parameterNumber":3,"parameterNumberName":"V-component_of_WINDS"},"data":[0,0,0,0,0,0,0,0,0,0,0,0,0,0,0,0,0,0,0,0,0,0,0,0,0,0,0,0,0,0,0,0,0,0,0,0,0,0,0,0,0,0,0,0,0,0,0,0,0,0,0,0,0,0,0,0,0,0,1.4292,1.4291,0,1.4205,1.4204,1.4203,1.4109,1.4108,1.4106,1.4105,1.4015,1.4014,1.4013,0,0,0,0,0,0,0,0,0,0,0,0,0,1.4376,1.4375,1.4292,1.4291,1.429,1.4205,1.4204,1.4202,1.4109,1.4107,1.4106,1.4104,1.4016,1.4014,1.4013,0,0,0,0,0,0,0,0,0,0,0,0,0,1.4319,1.4375,1.4292,1.4233,1.4227,1.4205,1.4204,1.4202,1.4109,1.4107,1.4105,1.4104,1.4016,1.4014,1.4013,1.4042,0,0,1.4008,1.4007,0,0,0,0,0,0,0,0,1.4323,1.4316,1.4243,1.4237,1.423,1.4166,1.42,1.4148,1.411,1.4154,1.4105,1.4103,1.4067,1.4061,1.4049,1.4038,1.4034,1.4007,1.4006,1.4006,1.4005,0,0,0,0,0,0,0,1.4327,1.432,1.4257,1.4242,1.4234,1.421,1.42,1.419,1.4123,1.415,1.4143,1.4134,1.4063,1.4051,1.4046,1.4033,1.4007,1.4006,1.4005,1.4004,1.4041,1.4043,0,0,0,0,0,0,1.434,1.4324,1.426,1.4255,1.4272,1.421,1.4199,1.4188,1.4123,1.4111,1.4136,1.413,1.4055,1.4048,1.4043,1.4072,1.4006,1.4004,1.4003,1.4039,1.4042,1.4044,0,0,0,0,0,0,1.4342,1.4335,1.4263,1.4287,1.4276,1.4211,1.42,1.4188,1.4175,1.4112,1.4099,1.4136,1.4053,1.4045,1.4043,1.4068,1.4003,1.4002,1.4037,1.404,1.4043,1.4133,0,0,0,0,0,0,1.4345,1.4336,1.4347,1.4288,1.4275,1.4266,1.4201,1.4187,1.4173,1.4164,1.4108,1.4097,1.4051,1.4046,1.4041,1.4064,1.4,1.4034,1.4038,1.4042,1.4127,1.4139,1.4148,0,0,0,0,0,1.4348,1.4376,1.4348,1.4341,1.4287,1.4267,1.426,1.4206,1.4175,1.4185,1.4144,1.4099,1.4066,1.4047,1.404,1.4064,1.4032,1.4037,1.4041,1.4123,1.4136,1.4148,0,0,0,0,0,0,1.4439,1.4367,1.4336,1.4345,1.4313,1.4252,1.4263,1.4222,1.4198,1.4191,1.4125,1.4113,1.4119,1.4091,1.407,1.4088,1.4043,1.4046,1.4107,1.4119,1.4129,1.4136,1.3999,0,0,0,0,0,1.4461,1.4451,1.4388,1.4402,1.4388,1.4329,1.4318,1.4279,1.4243,1.4229,1.4188,1.4155,1.4137,1.4126,1.4106,1.4123,1.4109,1.4136,1.4146,1.4155,1.4159,1.4165,1.4176,1.4059,1.4059,1.4059,0,0,1.4505,1.4464,1.4461,1.442,1.439,1.4381,1.4318,1.4311,1.4303,1.4228,1.4223,1.4192,1.4151,1.4158,1.4159,1.4135,1.4188,1.4161,1.4168,1.4167,1.4171,1.4182,1.4192,1.4062,1.4061,1.4061,0,0,1.458,1.4548,1.4556,1.4528,1.4485,1.4445,1.4447,1.4392,1.4368,1.4363,1.4306,1.4296,1.4266,1.4239,1.4221,1.4286,1.4244,1.4282,1.4336,1.4343,1.4352,1.436,1.4383,1.4392,1.4286,1.4286,1.4286,0,1.4639,1.4624,1.4566,1.4562,1.4546,1.4477,1.4485,1.446,1.4413,1.4403,1.4376,1.4337,1.4304,1.4304,1.432,1.4308,1.4309,1.4288,1.4356,1.4363,1.4369,1.4391,1.44,1.4291,1.429,1.429,1.4289,0,1.4699,1.4689,1.4701,1.4657,1.4642,1.4644,1.4586,1.4577,1.454,1.4503,1.4498,1.4457,1.4427,1.4424,1.4387,1.4419,1.4405,1.4368,1.4321,1.4387,1.4405,1.4413,1.4298,1.4296,1.4294,1.4293,0,0,1.4829,1.4753,1.4759,1.4738,1.4685,1.4676,1.4675,1.4646,1.4639,1.4609,1.4606,1.4583,1.4548,1.4529,1.4488,1.4494,1.4548,1.4456,1.4454,1.4475,1.458,1.4608,1.4619,1.452,1.4521,1.4522,1.4584,0,1.4895,1.4889,1.4837,1.4847,1.4836,1.4771,1.477,1.4738,1.4703,1.4689,1.4651,1.4635,1.4591,1.4578,1.4582,1.4541,1.4569,1.4536,1.4517,1.4517,1.4529,1.4628,1.4658,1.4718,1.459,1.4592,1.4593,0,1.4971,1.4945,1.4954,1.49,1.4894,1.4894,1.4863,1.4851,1.4813,1.4787,1.4765,1.4719,1.4714,1.467,1.4663,1.4642,1.4631,1.461,1.461,1.4606,1.4559,1.4627,1.4736,1.4745,1.4604,1.4603,1.4602,0,1.5065,1.5032,1.5033,1.5017,1.4955,1.4957,1.4931,1.489,1.4876,1.4849,1.4839,1.4812,1.4797,1.4777,1.4726,1.4698,1.4724,1.4675,1.4702,1.4704,1.471,1.4711,1.4819,1.4704,1.4704,1.4704,1.4703,0,1.5143,1.5151,1.5074,1.5075,1.5081,1.5021,1.5029,1.4997,1.4962,1.4955,1.4896,1.4891,1.4823,1.481,1.4769,1.4769,1.4763,1.4742,1.4731,1.4747,1.475,1.4739,1.4733,1.4706,1.4705,1.4705,1.4704,0,1.5249,1.5198,1.5195,1.5136,1.5122,1.5129,1.5079,1.5077,1.5039,1.503,1.5025,1.4965,1.4947,1.4893,1.4861,1.4834,1.4845,1.4824,1.4858,1.4851,1.4881,1.4879,1.4986,1.4997,1.4875,1.4877,1.4878,0,1.5303,1.5307,1.5249,1.5241,1.5217,1.5204,1.5189,1.513,1.5117,1.5074,1.5077,1.5054,1.5032,1.5006,1.4959,1.4934,1.4912,1.4952,1.4908,1.4924,1.4913,1.4913,1.4913,1.4961,1.4963,1.4964,1.4965,0,1.5403,1.5378,1.5359,1.5332,1.5316,1.5291,1.5264,1.526,1.5193,1.5182,1.5162,1.5146,1.5113,1.509,1.5058,1.5031,1.4987,1.4979,1.4984,1.5,1.502,1.501,1.4884,1.4977,1.4976,1.4975,1.4974,1.4974,1.5484,1.5485,1.5444,1.5426,1.5399,1.5374,1.5369,1.5331,1.5313,1.5282,1.5248,1.5232,1.5193,1.5145,1.5122,1.5108,1.5085,1.5092,1.5094,1.5096,1.5104,1.5022,1.5102,1.5102,1.5101,1.5101,1.5101,0,1.5581,1.5552,1.5535,1.5498,1.5484,1.5444,1.5411,1.5401,1.5388,1.5356,1.5336,1.5313,1.5291,1.5243,1.5217,1.5215,1.5195,1.521,1.521,1.5204,1.5126,1.5125,1.5228,1.5228,1.5228,1.5228,1.5228,1.5228,1.563,1.5629,1.5599,1.5585,1.5555,1.5539,1.5524,1.5501,1.5474,1.5452,1.5434,1.5403,1.5364,1.5334,1.5312,1.5298,1.5291,1.5314,1.5294,1.5222,1.521,1.5198,1.5196,1.5313,1.5313,1.5373,1.5373,1.5374]}]]